Portada
METAR-TAF:

METAR-TAF

Aeroports :

Whyalla, Austràlia

latitud: 33-03-32S, longitud: 137-30-52E, altitud: 12 m

Observació

L'informe es va fer fa 51 minuts, a les 13:00 UTC
Vent 13 kt del Oest/Sud-Oest
Temperatura 20°C
Humitat 64%
Pressió 1010 hPa
Visibilitat 10 km o més

METAR: YWHA 241300Z AUTO 25013KT 9999 // NCD 20/13 Q1010

Hora: 00:21 (13:51 UTC)


TAF: manca

Observacions i pronòstics meteorològics de més de 4000 aeroports (METAR i TAF).

Les estacions disponibles són els punts grocs i vermells al mapa.

Posi el ratolí al punt desitjat per veure el nom de l'estació.

Feu clic per veure les observacions i els pronòstics meteorològics.

Per canviar el mapa: feu clic els botons verds amb una creu de color negre per apropar; al botó verd amb un guió per allunyar la imatge; o en les fletxes verdes per a mapes adjacents.


METAR-TAF: